This is the latest recevied weather packets stored in our database for station/object KD2VWU. If no packets are shown the sender has not sent any weather packets the latest 10 day(s).
| Time | Temp. | Humidity | Pressure | Rain* | Wind** | Luminosity | Snow |
|---|---|---|---|---|---|---|---|
| 1777918970 | 21.11° C | 35% | 1007 hPa | 0 mm | - | - | - |
| 1777918668 | 21.11° C | 39% | 1007 hPa | 0 mm | - | - | - |
| 1777918365 | 21.11° C | 37% | 1007 hPa | 0 mm | - | - | - |
| 1777918064 | 20.56° C | 36% | 1007.2 hPa | 0 mm | - | - | - |
| 1777917762 | 20.56° C | 36% | 1007 hPa | 0 mm | - | - | - |
| 1777917459 | 21.11° C | 36% | 1007.6 hPa | 0 mm | - | - | - |
| 1777917156 | 20.56° C | 36% | 1007.3 hPa | 0 mm | - | - | - |
| 1777916854 | 21.11° C | 35% | 1007.4 hPa | 0 mm | - | - | - |
| 1777916552 | 20.56° C | 39% | 1007.5 hPa | 0 mm | - | - | - |
| 1777916248 | 20.56° C | 36% | 1007.7 hPa | 0 mm | - | - | - |
| 1777915945 | 20.56° C | 40% | 1008 hPa | 0 mm | - | - | - |
| 1777915642 | 20.56° C | 42% | 1007.6 hPa | 0 mm | - | - | - |
| 1777915338 | 20° C | 39% | 1007.6 hPa | 0 mm | - | - | - |
| 1777915035 | 20.56° C | 38% | 1007.6 hPa | 0 mm | - | - | - |
| 1777914732 | 20.56° C | 37% | 1007.6 hPa | 0 mm | - | - | - |
| 1777914428 | 20.56° C | 39% | 1007.8 hPa | 0 mm | - | - | - |
| 1777914126 | 20° C | 38% | 1007.7 hPa | 0 mm | - | - | - |
| 1777913822 | 20° C | 40% | 1008 hPa | 0 mm | - | - | - |
| 1777913518 | 19.44° C | 39% | 1007.8 hPa | 0 mm | - | - | - |
| 1777913215 | 19.44° C | 39% | 1008 hPa | 0 mm | - | - | - |
| 1777912911 | 18.89° C | 39% | 1008 hPa | 0 mm | - | - | - |
| 1777912608 | 19.44° C | 39% | 1008.3 hPa | 0 mm | - | - | - |
| 1777912304 | 18.89° C | 39% | 1008.1 hPa | 0 mm | - | - | - |
| 1777912000 | 19.44° C | 38% | 1008.2 hPa | 0 mm | - | - | - |
| 1777911696 | 20° C | 37% | 1008.1 hPa | 0 mm | - | - | - |
* Rain latest hour (hover to see other rain measurements)
** Current wind speed in m/s (hover to see current wind gust speed)